Location: Butte
(46.0040°N, 112.5340°W)
Time: 19:53:06
(UTC-06:00)

Daily predictions for brighter satellites

Satellite Brightness Start Highest point End
(mag) Time Altitude Azimuth Time Altitude Azimuth Time Altitude Azimuth
Cosmos 2333 Rocket 2.5 19:36:28 10° SSW 19:42:14 81° WNW 19:48:03 10° NNE
Spot 2 Rocket 4.0 19:39:27 10° SE 19:44:06 39° ENE 19:48:46 10° N
Cosmos 2056 Rocket 3.6 19:39:08 10° NNW 19:44:36 78° ENE 19:50:02 10° SSE
Cosmos 1484 Rocket 3.0 19:42:55 10° S 19:46:44 75° WSW 19:50:40 10° NNW
Cosmos-2242 4.4 19:43:48 10° SE 19:46:46 18° E 19:49:45 10° NE
Cosmos 2233 Rocket 4.1 19:42:05 10° S 19:48:24 86° E 19:54:46 10° N
SKYMED 2 3.7 19:46:29 10° NNE 19:50:51 87° WNW 19:55:12 10° SSW
Cosmos 1607 4.1 19:45:11 10° SW 19:51:22 82° NW 19:57:33 10° NE
NOSS 3-2 (C) 4.1 19:46:12 10° S 19:51:39 35° ESE 19:57:31 10° NE
Cosmos 1408 Rocket 4.0 19:52:53 10° N 19:57:01 40° ENE 20:01:06 10° SE
IDEFIX/ARIANE 42P 4.5 19:53:15 10° SSW 19:58:01 36° W 20:02:51 10° NNW
NOAA 12 4.1 19:54:00 10° SSE 19:59:14 77° ENE 20:04:33 10° NNW
ATLAS CENTAUR R/B 2.7 19:59:13 10° NW 20:03:14 41° WSW 20:06:56 10° S
SAR-Lupe-1 4.2 20:00:06 10° S 20:03:40 78° WSW 20:07:14 10° NNW
Aureole 2 Rocket 3.0 20:00:36 10° S 20:04:54 60° ESE 20:09:08 10° NNE
Cosmos 1766 3.3 20:02:33 10° S 20:06:27 63° E 20:10:25 10° NNE
Cosmos 2237 Rocket 2.8 20:02:19 10° SW 20:07:56 62° WNW 20:13:36 10° NNE
HJ-1C 3.5 20:04:49 10° SSE 20:08:06 53° ENE 20:11:25 10° N
Okean 3 Rocket 4.0 20:03:43 10° NNW 20:08:16 72° W 20:12:46 10° S
Resurs 01 Rocket 1.6 20:07:12 10° SSE 20:11:36 63° ENE 20:16:02 10° N
Resurs 1-3 3.8 20:08:48 10° SSE 20:13:02 51° ENE 20:17:18 10° N
ATLAS 5 CENTAUR R/B 2.4 20:10:58 10° S 20:15:20 36° ESE 20:20:03 10° NE
Meteor 1-29 3.5 20:14:17 10° NNE 20:17:36 37° E 20:20:52 10° SSE
CZ-2D R/B 4.0 20:18:24 12° SE 20:21:35 33° ENE 20:25:06 10° N
Cosmos 1743 Rocket 4.1 20:20:27 10° N 20:24:39 38° ENE 20:28:39 11° SE
Cosmos 192 4.3 20:21:00 10° S 20:25:55 68° ESE 20:30:51 10° NNE
USA 215 3.3 20:20:19 10° ENE 20:26:46 59° SE 20:33:12 10° SW
SL-16 R/B 2.2 20:21:36 10° SSW 20:27:17 88° ESE 20:33:02 10° NNE
Cosmos 1953 2.4 20:23:55 10° S 20:27:47 50° E 20:31:39 10° NNE
ATLAS CENTAUR R/B 3.9 20:28:52 10° SSW 20:34:21 72° SE 20:52:30 10° NE
Helios 1A 3.0 20:30:51 10° SSE 20:35:03 82° WSW 20:39:16 10° NNW
ERS-1 Rocket 4.2 20:34:55 20° E 20:36:28 23° ENE 20:40:23 10° N
GP-B 4.1 20:34:17 10° NNE 20:38:02 26° E 20:38:50 24° E
Cosmos 1805 3.2 20:34:22 10° S 20:38:15 65° E 20:42:11 10° NNE
SeaSat 1 3.3 20:34:23 10° NE 20:38:33 26° ESE 20:42:40 10° SSE
H-2A R/B 3.0 20:36:26 17° SE 20:39:17 50° ENE 20:43:04 10° N
Nadezhda 4 Rocket 4.0 20:33:44 10° N 20:40:00 63° ENE 20:46:09 10° SSE
Meteor 1-28 Rocket 4.3 20:36:35 10° N 20:40:11 47° WNW 20:43:46 10° SSW
Cosmos 1544 3.4 20:36:43 10° SSE 20:40:18 45° E 20:43:54 10° NNE
Cosmos 1452 Rocket 3.6 20:36:02 10° NNW 20:41:19 81° WSW 20:46:33 10° SSE
CZ-4B DEB 2.7 20:39:33 17° SSE 20:41:55 68° ENE 20:45:11 10° N
Cosmos 1092 Rocket 4.1 20:39:56 10° N 20:46:02 51° ENE 20:51:18 13° SSE
Cosmos 2219 Rocket 4.5 20:42:45 10° W 20:47:15 24° NW 20:51:49 10° N
ATLAS 3B R/B 4.4 20:41:02 10° W 20:47:48 34° NNW 20:54:20 10° NNE
ALOS 2.2 20:43:57 10° SSE 20:48:37 82° ENE 20:53:19 10° NNW
FENGYUN 3A 3.6 20:49:51 10° SSE 20:55:13 89° ENE 21:00:40 10° NNW
Cosmos 1470 3.0 20:59:51 45° E 20:59:51 45° E 21:03:32 10° NNE
Cosmos 724 4.3 20:53:59 10° SSW 20:59:50 65° ESE 21:05:54 10° NE
Cosmos 468 4.4 20:55:03 10° S 21:00:15 71° ESE 21:05:29 10° NNE
Meteor 2-12 Rocket 4.4 20:54:33 10° S 21:00:44 89° WNW 21:06:56 10° N
Cosmos 2026 Rocket 4.4 20:55:50 10° N 21:01:30 39° ENE 21:03:21 32° ESE
Cosmos 1634 Rocket 4.2 20:57:30 10° SSE 21:03:23 45° E 21:09:15 10° NNE
Cosmos 1420 Rocket 4.0 20:59:00 10° NNW 21:04:20 89° WSW 21:07:54 22° SSE
NOSS 3-2 (A) 3.8 20:58:15 10° SW 21:04:23 71° NW 21:11:10 10° NE
USA 186 3.4 21:06:59 18° N 21:06:59 18° N 21:07:44 10° N
H-2A R/B 3.8 21:08:55 19° NE 21:08:55 19° NE 21:11:15 10° NNE
Cosmos 2369 Rocket 2.3 21:03:19 10° NNW 21:08:53 54° ENE 21:10:43 38° ESE
CZ-4C R/B 3.9 21:03:56 10° W 21:08:58 33° NNW 21:14:37 10° NNE
Cosmos 1758 4.1 21:05:26 10° SSW 21:09:25 53° WNW 21:13:29 10° N
Cosmos 1733 4.2 21:14:32 33° NE 21:14:32 33° NE 21:16:56 10° NNE
Cosmos 1603 3.6 21:08:46 10° SSW 21:14:30 82° ESE 21:20:18 10° NNE
Cosmos 1943 Rocket 3.1 21:11:10 10° N 21:16:09 31° NE 21:16:46 30° ENE
Helios 1B rocket 3.9 21:13:10 10° N 21:16:59 38° WNW 21:20:47 10° SW
ERBS 4.2 21:16:52 10° NNW 21:19:29 22° NNE 21:19:29 22° NNE
Cosmos 1269 Rocket 3.9 21:16:33 10° SSW 21:21:50 83° ESE 21:27:08 10° NNE
ASTEX 1 3.6 21:18:06 10° N 21:23:01 72° W 21:27:53 10° SSW
Cosmos 2195 Rocket 4.5 21:16:55 10° N 21:23:13 64° ENE 21:25:41 38° SE
Cosmos-2242 4.2 21:19:48 10° SSW 21:23:59 45° WNW 21:28:13 10° N
Cosmos 1674 3.1 21:22:01 10° NNW 21:25:52 62° W 21:26:55 43° SSW
Cosmos 1048 Rocket 3.9 21:20:40 10° SSW 21:25:58 78° ESE 21:31:14 10° NNE
H-2A R/B 4.2 21:34:03 12° NE 21:34:03 12° NE 21:34:49 10° NNE
Envisat 2.9 21:33:30 60° E 21:33:41 61° ENE 21:38:42 10° N
SJ-11-01 4.1 21:33:28 73° SE 21:33:52 80° ENE 21:38:34 10° NNW
Cosmos 1500 Rocket 4.1 21:30:03 10° NNW 21:34:24 57° W 21:36:15 32° SSW
Cosmos 1939 Rocket 3.7 21:35:39 42° NNE 21:35:39 42° NNE 21:38:28 10° N
Cosmos 1842 Rocket 3.7 21:32:04 19° SSW 21:35:07 70° W 21:39:30 10° N
Meteor 1-11 4.2 21:30:59 10° N 21:36:47 66° ENE 21:37:33 59° ESE
Cosmos 2151 3.1 21:33:35 10° N 21:37:16 66° N 21:37:16 66° N
Cosmos 1328 4.3 21:36:31 10° N 21:39:38 53° NNW 21:39:38 53° NNW
CENTAUR R/B 2.5 21:35:18 10° SSW 21:46:45 15° NE 21:47:54 10° NE
NOSS 3-2 (C) 4.2 21:36:13 10° WSW 21:42:17 53° NW 21:48:59 10° NE
Meteor 1-16 Rocket 4.3 21:45:36 53° NE 21:45:36 53° NE 21:49:52 10° NNE
Cosmos 1627 Rocket 4.4 21:39:40 10° N 21:45:53 90° W 21:47:58 45° S
Cosmos 2058 4.1 21:46:27 10° N 21:48:56 35° N 21:48:56 35° N
Exosat Rocket 4.4 21:45:34 10° NNW 21:52:02 87° ENE 21:54:59 45° SSE
SPOT 5 4.1 21:54:43 27° NNE 21:54:43 27° NNE 21:56:54 10° N
ATLAS 5 CENTAUR R/B 3.1 21:55:21 10° WSW 21:59:58 40° NW 22:05:02 10° NNE
USA 215 3.8 22:05:01 19° NE 22:09:46 55° NNW 22:16:06 10° W
ERS-1 Rocket 3.6 22:14:55 51° W 22:14:55 51° W 22:19:50 10° NNW
Cosmos 1110 Rocket 4.4 22:10:31 10° NNW 22:15:10 62° WNW 22:15:10 62° WNW
SeaSat 1 3.3 22:11:30 10° NNE 22:16:15 49° NW 22:21:00 10° SW
ARGOS 4.2 22:24:38 37° N 22:24:38 37° N 22:28:00 10° N
Cosmos 1655 Rocket 4.4 22:19:59 10° NNW 22:26:04 57° W 22:26:58 52° SW
BREEZE-M DEB (TANK) 4.1 22:19:10 10° W 22:26:54 59° NW 22:26:54 59° NW
Cosmos 2279 Rocket 4.1 22:28:27 72° WNW 22:28:27 72° WNW 22:34:31 10° N
H-2A R/B 4.3 22:46:04 24° NW 22:46:04 24° NW 22:48:01 10° NNW
Cosmos 2369 Rocket 3.9 22:48:00 10° NW 22:52:31 25° WSW 22:52:31 25° WSW
Cosmos 1943 4.5 22:56:26 37° NNW 22:56:26 37° NNW 23:00:46 10° NNE
Cosmos 1943 Rocket 3.5 22:54:43 10° NW 22:58:18 35° WNW 22:58:18 35° WNW
Terra 4.4 23:05:50 15° N 23:05:50 15° N 23:06:42 10° N
H-2A R/B 4.2 23:14:42 20° NNW 23:14:42 20° NNW 23:16:17 10° NNW
CENTAUR R/B 3.9 23:26:14 10° WSW 23:33:45 35° N 23:38:52 10° NNE
